TimeCDT,TemperatureF,Dew PointF,Humidity,Sea Level PressureIn,VisibilityMPH,Wind Direction,Wind SpeedMPH,Gust SpeedMPH,PrecipitationIn,Events,Conditions,WindDirDegrees,DateUTC
12:15 AM,19.0,13.5,79,30.21,10.0,NW,4.6,-,N/A,,Clear,310,2013-04-05 05:15:00
12:35 AM,18.0,12.7,80,30.21,10.0,NNW,4.6,-,N/A,,Clear,330,2013-04-05 05:35:00
12:55 AM,17.4,12.2,80,30.22,10.0,NW,4.6,-,N/A,,Clear,320,2013-04-05 05:55:00
1:15 AM,17.1,11.8,80,30.22,10.0,NNW,3.5,-,N/A,,Clear,330,2013-04-05 06:15:00
1:35 AM,17.1,11.7,79,30.21,10.0,NW,4.6,-,N/A,,Clear,320,2013-04-05 06:35:00
1:55 AM,16.5,11.1,79,30.22,10.0,NW,3.5,-,N/A,,Clear,310,2013-04-05 06:55:00
2:15 AM,16.3,11.5,81,30.22,10.0,Calm,Calm,-,N/A,,Clear,0,2013-04-05 07:15:00
2:35 AM,16.5,11.5,81,30.22,10.0,Calm,Calm,-,N/A,,Clear,0,2013-04-05 07:35:00
2:55 AM,16.0,11.5,82,30.22,10.0,Calm,Calm,-,N/A,,Clear,0,2013-04-05 07:55:00
3:15 AM,16.9,11.5,79,30.22,10.0,Calm,Calm,-,N/A,,Clear,0,2013-04-05 08:15:00
3:35 AM,15.4,11.1,83,30.22,10.0,North,3.5,-,N/A,,Clear,360,2013-04-05 08:35:00
3:55 AM,14.5,10.4,84,30.21,10.0,Calm,Calm,-,N/A,,Clear,0,2013-04-05 08:55:00
4:15 AM,15.3,10.4,81,30.22,10.0,Calm,Calm,-,N/A,,Clear,0,2013-04-05 09:15:00
4:35 AM,14.5,10.6,84,30.21,10.0,Calm,Calm,-,N/A,,Clear,0,2013-04-05 09:35:00
4:55 AM,13.5,9.5,84,30.22,10.0,Calm,Calm,-,N/A,,Clear,0,2013-04-05 09:55:00
5:15 AM,14.0,9.7,83,30.22,10.0,Calm,Calm,-,N/A,,Clear,0,2013-04-05 10:15:00
5:55 AM,12.0,8.8,87,30.21,10.0,Calm,Calm,-,N/A,,Clear,0,2013-04-05 10:55:00
6:15 AM,11.3,8.6,89,30.22,10.0,Calm,Calm,-,N/A,,Clear,0,2013-04-05 11:15:00
6:35 AM,11.5,8.8,89,30.21,10.0,Calm,Calm,-,N/A,,Clear,0,2013-04-05 11:35:00
6:55 AM,11.3,8.8,90,30.22,10.0,Calm,Calm,-,N/A,,Clear,0,2013-04-05 11:55:00
7:15 AM,10.6,7.7,88,30.22,10.0,Calm,Calm,-,N/A,,Clear,0,2013-04-05 12:15:00
7:35 AM,10.9,8.1,88,30.22,10.0,Calm,Calm,-,N/A,,Clear,0,2013-04-05 12:35:00
7:55 AM,11.7,9.1,90,30.21,10.0,Calm,Calm,-,N/A,,Clear,0,2013-04-05 12:55:00
8:15 AM,13.6,10.2,86,30.21,10.0,Calm,Calm,-,N/A,,Clear,0,2013-04-05 13:15:00
8:35 AM,16.7,11.7,81,30.20,10.0,ESE,5.8,-,N/A,,Clear,110,2013-04-05 13:35:00
8:55 AM,19.2,11.8,73,30.19,10.0,ESE,5.8,-,N/A,,Clear,110,2013-04-05 13:55:00
9:15 AM,20.7,12.4,70,30.19,10.0,ESE,6.9,-,N/A,,Clear,110,2013-04-05 14:15:00
9:35 AM,22.5,13.5,68,30.18,10.0,SE,8.1,-,N/A,,Clear,130,2013-04-05 14:35:00
9:55 AM,25.0,14.4,64,30.18,10.0,SE,10.4,-,N/A,,Clear,140,2013-04-05 14:55:00
10:15 AM,27.0,15.6,62,30.17,10.0,SE,9.2,-,N/A,,Clear,140,2013-04-05 15:15:00
10:55 AM,28.4,16.0,60,30.15,10.0,SSE,12.7,-,N/A,,Scattered Clouds,150,2013-04-05 15:55:00
11:15 AM,29.3,15.8,57,30.15,10.0,SE,12.7,18.4,N/A,,Scattered Clouds,140,2013-04-05 16:15:00
11:35 AM,30.2,15.3,54,30.14,10.0,SE,12.7,18.4,N/A,,Scattered Clouds,140,2013-04-05 16:35:00
11:55 AM,30.9,15.8,54,30.14,10.0,SSE,17.3,-,N/A,,Clear,160,2013-04-05 16:55:00
12:15 PM,30.9,16.3,55,30.13,10.0,SE,15.0,-,N/A,,Scattered Clouds,140,2013-04-05 17:15:00
12:35 PM,31.3,15.6,52,30.13,10.0,SE,11.5,-,N/A,,Mostly Cloudy,140,2013-04-05 17:35:00
12:55 PM,31.8,15.6,51,30.12,10.0,SE,12.7,-,N/A,,Mostly Cloudy,130,2013-04-05 17:55:00
1:15 PM,32.0,16.3,52,30.12,10.0,SE,10.4,-,N/A,,Mostly Cloudy,130,2013-04-05 18:15:00
1:35 PM,32.4,16.7,53,30.11,10.0,SSE,10.4,-,N/A,,Mostly Cloudy,150,2013-04-05 18:35:00
1:55 PM,32.5,16.9,53,30.09,10.0,ESE,11.5,-,N/A,,Mostly Cloudy,120,2013-04-05 18:55:00
2:15 PM,32.5,17.4,54,30.07,10.0,ESE,10.4,-,N/A,,Overcast,120,2013-04-05 19:15:00
2:35 PM,33.3,16.9,51,30.07,10.0,ESE,9.2,-,N/A,,Overcast,120,2013-04-05 19:35:00
2:55 PM,33.4,17.2,52,30.05,10.0,ESE,12.7,-,N/A,,Overcast,120,2013-04-05 19:55:00
3:15 PM,34.0,17.4,51,30.05,10.0,ESE,12.7,17.3,N/A,,Overcast,120,2013-04-05 20:15:00
3:35 PM,34.3,17.2,50,30.03,10.0,SSE,16.1,-,N/A,,Overcast,150,2013-04-05 20:35:00
3:55 PM,34.3,17.2,50,30.02,10.0,SE,12.7,18.4,N/A,,Overcast,140,2013-04-05 20:55:00
4:15 PM,34.3,17.8,51,30.01,10.0,SE,15.0,-,N/A,,Overcast,130,2013-04-05 21:15:00
4:35 PM,34.5,18.3,52,30.00,10.0,SE,12.7,17.3,N/A,,Overcast,130,2013-04-05 21:35:00
4:55 PM,34.7,18.3,51,29.99,10.0,SE,9.2,-,N/A,,Overcast,130,2013-04-05 21:55:00
5:15 PM,34.5,18.3,52,29.99,10.0,SE,10.4,18.4,N/A,,Overcast,130,2013-04-05 22:15:00
5:35 PM,34.3,18.5,52,29.98,10.0,ESE,12.7,17.3,N/A,,Overcast,120,2013-04-05 22:35:00
5:55 PM,34.0,18.5,53,29.98,10.0,SE,15.0,20.7,N/A,,Overcast,130,2013-04-05 22:55:00
6:15 PM,33.6,18.7,54,29.98,10.0,SE,12.7,19.6,N/A,,Overcast,130,2013-04-05 23:15:00
6:35 PM,33.3,19.6,57,29.98,10.0,South,12.7,18.4,N/A,,Overcast,170,2013-04-05 23:35:00
6:55 PM,32.5,20.8,62,29.98,10.0,SSE,10.4,-,N/A,,Overcast,160,2013-04-05 23:55:00
7:15 PM,32.0,22.1,67,29.98,10.0,SSE,10.4,-,N/A,Snow,Light Snow,160,2013-04-06 00:15:00
7:35 PM,31.3,23.9,74,29.97,7.0,SE,9.2,-,N/A,Snow,Light Snow,140,2013-04-06 00:35:00
7:55 PM,30.9,24.6,77,29.97,10.0,ESE,5.8,-,N/A,,Overcast,120,2013-04-06 00:55:00
8:15 PM,30.9,24.6,77,29.96,7.0,ESE,5.8,-,N/A,Snow,Light Snow,110,2013-04-06 01:15:00
8:35 PM,30.7,24.8,79,29.96,10.0,East,6.9,-,N/A,,Overcast,100,2013-04-06 01:35:00
8:55 PM,30.9,24.6,77,29.95,10.0,ESE,8.1,-,N/A,,Overcast,120,2013-04-06 01:55:00
9:15 PM,30.9,24.8,78,29.95,10.0,ESE,6.9,-,N/A,Snow,Light Snow,120,2013-04-06 02:15:00
9:35 PM,31.3,24.8,77,29.94,10.0,SE,13.8,18.4,N/A,,Overcast,140,2013-04-06 02:35:00
9:55 PM,31.5,24.6,76,29.93,7.0,SE,12.7,17.3,N/A,Snow,Light Snow,130,2013-04-06 02:55:00
10:15 PM,30.9,25.3,80,29.92,10.0,SE,17.3,-,N/A,Snow,Light Snow,130,2013-04-06 03:15:00
10:35 PM,30.9,25.3,80,29.91,10.0,ESE,16.1,21.9,N/A,,Overcast,120,2013-04-06 03:35:00
10:55 PM,30.6,25.7,82,29.90,10.0,ESE,18.4,23.0,N/A,,Overcast,120,2013-04-06 03:55:00
11:15 PM,30.2,25.9,84,29.88,10.0,ESE,17.3,-,N/A,,Overcast,120,2013-04-06 04:15:00
11:35 PM,30.2,26.1,85,29.88,10.0,ESE,15.0,23.0,N/A,,Overcast,120,2013-04-06 04:35:00
11:55 PM,30.2,26.2,85,29.87,10.0,SE,13.8,21.9,N/A,,Overcast,130,2013-04-06 04:55:00